This is the latest recevied weather packets stored in our database for station/object W0AKO. If no packets are shown the sender has not sent any weather packets the latest 10 day(s).
| Time | Temp. | Humidity | Pressure | Rain* | Wind** | Luminosity | Snow |
|---|---|---|---|---|---|---|---|
| 1777626537 | 17.78° C | 10% | 1015.4 hPa | 0 mm | - | 0 W/m² | - |
| 1777626232 | 18.33° C | 10% | 1015.5 hPa | 0 mm | - | 0 W/m² | - |
| 1777625930 | 18.89° C | 10% | 1015.3 hPa | 0 mm | - | 0 W/m² | - |
| 1777625626 | 18.33° C | 10% | 1015.5 hPa | 0 mm | - | 0 W/m² | - |
| 1777625322 | 18.89° C | 10% | 1015.4 hPa | 0 mm | - | 0 W/m² | - |
| 1777625019 | 18.89° C | 10% | 1015.3 hPa | 0 mm | - | 0 W/m² | - |
| 1777624716 | 18.89° C | 10% | 1015.4 hPa | 0 mm | - | 0 W/m² | - |
| 1777624411 | 18.89° C | 10% | 1015.6 hPa | 0 mm | - | 0 W/m² | - |
| 1777624108 | 18.89° C | 10% | 1015.3 hPa | 0 mm | - | 0 W/m² | - |
| 1777623805 | 18.89° C | 10% | 1015.4 hPa | 0 mm | - | 0 W/m² | - |
| 1777623502 | 19.44° C | 10% | 1015.5 hPa | 0 mm | - | 0 W/m² | - |
| 1777623200 | 18.89° C | 10% | 1015.7 hPa | 0 mm | - | 0 W/m² | - |
| 1777622897 | 19.44° C | 10% | 1015.8 hPa | 0 mm | - | 0 W/m² | - |
| 1777622592 | 19.44° C | 10% | 1015.6 hPa | 0 mm | - | 0 W/m² | - |
| 1777622289 | 19.44° C | 10% | 1015.5 hPa | 0 mm | - | 0 W/m² | - |
| 1777621986 | 18.89° C | 10% | 1015.4 hPa | 0 mm | - | 0 W/m² | - |
| 1777621681 | 18.89° C | 10% | 1015.3 hPa | 0 mm | - | 0 W/m² | - |
| 1777621378 | 18.33° C | 10% | 1015.4 hPa | 0 mm | - | 0 W/m² | - |
| 1777621073 | 18.89° C | 10% | 1015.3 hPa | 0 mm | - | 0 W/m² | - |
| 1777620769 | 18.89° C | 10% | 1015.1 hPa | 0 mm | - | 0 W/m² | - |
| 1777620466 | 18.89° C | 10% | 1015 hPa | 0 mm | - | 0 W/m² | - |
| 1777620163 | 19.44° C | 10% | 1014.7 hPa | 0 mm | - | 0 W/m² | - |
| 1777619859 | 19.44° C | 10% | 1015 hPa | 0 mm | - | 0 W/m² | - |
| 1777619556 | 19.44° C | 10% | 1015 hPa | 0 mm | - | 0 W/m² | - |
| 1777619251 | 19.44° C | 10% | 1015.1 hPa | 0 mm | - | 0 W/m² | - |
* Rain latest hour (hover to see other rain measurements)
** Current wind speed in m/s (hover to see current wind gust speed)